| time (UTC) | temp C | wind direction | speed KPH | gust KPH | rain 1hr cm | rain 24hr cm | rain mn cm | humidity % | barometer mb |
| 20260505111544 | -1 | 351 | 4.8 | 12.9 | 0.00 | 0.00 | 0.00 | 77 | 1014.5 |
| 20260505101541 | 0 | 305 | 8.0 | 27.4 | 0.00 | 0.00 | 0.00 | 73 | 1014.5 |
| 20260505100044 | 0 | 296 | 6.4 | 24.1 | 0.00 | 0.00 | 0.00 | 72 | 1014.3 |
| 20260505094550 | 1 | 309 | 4.8 | 16.1 | 0.00 | 0.00 | 0.00 | 67 | 1014.2 |
| 20260505093047 | 1 | 352 | 6.4 | 17.7 | 0.00 | 0.00 | 0.00 | 63 | 1013.9 |
| 20260505091556 | 2 | 309 | 9.7 | 17.7 | 0.00 | 0.00 | 0.00 | 57 | 1013.9 |
| 20260505090050 | 2 | 299 | 3.2 | 19.3 | 0.00 | 0.00 | 0.00 | 53 | 1013.9 |
| 20260505084600 | 2 | 312 | 8.0 | 20.9 | 0.00 | 0.00 | 0.00 | 51 | 1013.7 |
| 20260505083059 | 3 | 274 | 8.0 | 24.1 | 0.00 | 0.00 | 0.00 | 52 | 1013.9 |
| 20260505081558 | 3 | 301 | 6.4 | 17.7 | 0.00 | 0.00 | 0.00 | 55 | 1014.1 |
| 20260505080050 | 3 | 305 | 8.0 | 22.5 | 0.00 | 0.00 | 0.00 | 56 | 1014.0 |
| 20260505074540 | 3 | 314 | 9.7 | 22.5 | 0.00 | 0.00 | 0.00 | 56 | 1014.2 |
| 20260505073052 | 3 | 307 | 6.4 | 22.5 | 0.00 | 0.00 | 0.00 | 58 | 1014.4 |
| 20260505071548 | 2 | 317 | 4.8 | 16.1 | 0.00 | 0.00 | 0.00 | 62 | 1014.5 |
| 20260505070054 | 2 | 304 | 4.8 | 19.3 | 0.00 | 0.00 | 0.00 | 62 | 1014.7 |
| 20260505064546 | 3 | 301 | 4.8 | 12.9 | 0.00 | 0.00 | 0.00 | 63 | 1014.7 |
| 20260505063051 | 3 | 0 | 1.6 | 20.9 | 0.00 | 0.00 | 0.00 | 63 | 1014.7 |
| 20260505061542 | 3 | 300 | 3.2 | 17.7 | 0.00 | 0.00 | 0.00 | 63 | 1014.6 |
| 20260505060057 | 3 | 294 | 8.0 | 19.3 | 0.00 | 0.00 | 0.00 | 62 | 1014.5 |
| 20260505054544 | 3 | 296 | 9.7 | 22.5 | 0.00 | 0.00 | 0.00 | 62 | 1014.5 |
| 20260505053043 | 3 | 305 | 8.0 | 25.7 | 0.00 | 0.00 | 0.00 | 63 | 1014.3 |
| 20260505051540 | 4 | 296 | 11.3 | 20.9 | 0.00 | 0.00 | 0.00 | 63 | 1014.2 |
| 20260505041550 | 4 | 304 | 8.0 | 19.3 | 0.00 | 0.00 | 0.00 | 60 | 1013.5 |
| 20260505040047 | 4 | 312 | 6.4 | 19.3 | 0.00 | 0.00 | 0.00 | 59 | 1013.4 |
| 20260505034543 | 5 | 292 | 8.0 | 24.1 | 0.00 | 0.00 | 0.00 | 59 | 1013.2 |
| 20260505033042 | 5 | 300 | 4.8 | 14.5 | 0.00 | 0.00 | 0.00 | 60 | 1013.0 |
| 20260505031543 | 5 | 300 | 9.7 | 17.7 | 0.00 | 0.00 | 0.00 | 60 | 1013.0 |
| 20260505030108 | 5 | 308 | 6.4 | 20.9 | 0.00 | 0.00 | 0.00 | 59 | 1013.0 |
| 20260505024550 | 5 | 308 | 4.8 | 16.1 | 0.00 | 0.00 | 0.00 | 60 | 1012.9 |
| 20260505023044 | 5 | 301 | 9.7 | 19.3 | 0.00 | 0.00 | 0.00 | 59 | 1012.7 |
| 20260505021551 | 5 | 296 | 12.9 | 24.1 | 0.00 | 0.00 | 0.00 | 59 | 1012.7 |
| 20260505020043 | 5 | 296 | 6.4 | 19.3 | 0.00 | 0.00 | 0.00 | 60 | 1012.5 |
| 20260505014607 | 5 | 337 | 4.8 | 20.9 | 0.00 | 0.00 | 0.00 | 59 | 1012.5 |
| 20260505013051 | 5 | 292 | 4.8 | 14.5 | 0.00 | 0.00 | 0.00 | 58 | 1012.5 |
| 20260505011546 | 5 | 307 | 3.2 | 17.7 | 0.00 | 0.00 | 0.00 | 59 | 1012.6 |
| 20260505010059 | 6 | 0 | 1.6 | 14.5 | 0.00 | 0.00 | 0.00 | 59 | 1012.6 |
| 20260505004555 | 6 | 300 | 9.7 | 20.9 | 0.00 | 0.00 | 0.00 | 57 | 1012.6 |
| 20260505003057 | 6 | 313 | 9.7 | 20.9 | 0.00 | 0.00 | 0.00 | 56 | 1012.7 |
| 20260505001546 | 6 | 290 | 9.7 | 29.0 | 0.00 | 0.00 | 0.00 | 57 | 1012.5 |
| 20260505000051 | 6 | 302 | 8.0 | 20.9 | 0.00 | 0.00 | 0.00 | 56 | 1012.6 |
| 20260504234545 | 6 | 291 | 6.4 | 22.5 | 0.00 | 0.00 | 0.00 | 55 | 1012.6 |
| 20260504233045 | 6 | 302 | 8.0 | 20.9 | 0.00 | 0.00 | 0.00 | 56 | 1012.4 |
| 20260504231542 | 6 | 300 | 11.3 | 20.9 | 0.00 | 0.00 | 0.00 | 54 | 1012.3 |
| 20260504230042 | 6 | 306 | 6.4 | 17.7 | 0.00 | 0.00 | 0.00 | 57 | 1012.3 |
| 20260504224545 | 6 | 335 | 6.4 | 17.7 | 0.00 | 0.00 | 0.00 | 58 | 1012.2 |
| 20260504223100 | 6 | 331 | 8.0 | 29.0 | 0.00 | 0.00 | 0.00 | 59 | 1012.3 |
| 20260504221542 | 7 | 300 | 4.8 | 22.5 | 0.00 | 0.00 | 0.00 | 54 | 1012.5 |
| 20260504220045 | 7 | 306 | 3.2 | 20.9 | 0.00 | 0.00 | 0.00 | 54 | 1012.5 |
| 20260504214541 | 7 | 304 | 4.8 | 17.7 | 0.00 | 0.00 | 0.00 | 59 | 1012.7 |
| 20260504213047 | 6 | 324 | 8.0 | 19.3 | 0.00 | 0.00 | 0.00 | 55 | 1012.7 |
| 20260504211624 | 6 | 293 | 6.4 | 20.9 | 0.00 | 0.00 | 0.00 | 53 | 1013.0 |
| 20260504210046 | 6 | 309 | 11.3 | 24.1 | 0.00 | 0.00 | 0.00 | 54 | 1013.3 |
| 20260504204543 | 6 | 292 | 8.0 | 20.9 | 0.00 | 0.00 | 0.00 | 54 | 1013.4 |
| 20260504203050 | 7 | 300 | 11.3 | 30.6 | 0.00 | 0.00 | 0.00 | 51 | 1013.4 |
| 20260504201552 | 8 | 286 | 9.7 | 20.9 | 0.00 | 0.00 | 0.00 | 50 | 1013.2 |
| 20260504200047 | 7 | 305 | 4.8 | 20.9 | 0.00 | 0.00 | 0.00 | 50 | 1013.3 |
| 20260504194549 | 8 | 292 | 8.0 | 22.5 | 0.00 | 0.00 | 0.00 | 51 | 1013.3 |
| 20260504193042 | 8 | 267 | 8.0 | 29.0 | 0.00 | 0.00 | 0.00 | 53 | 1013.2 |
| 20260504191556 | 8 | 317 | 9.7 | 25.7 | 0.00 | 0.00 | 0.00 | 52 | 1013.2 |
| 20260504190044 | 8 | 311 | 3.2 | 16.1 | 0.00 | 0.00 | 0.00 | 53 | 1013.0 |
| 20260504184548 | 8 | 296 | 8.0 | 22.5 | 0.00 | 0.00 | 0.00 | 51 | 1013.1 |
| 20260504183045 | 7 | 300 | 6.4 | 19.3 | 0.00 | 0.00 | 0.00 | 58 | 1013.5 |
| 20260504181544 | 6 | 0 | 4.8 | 17.7 | 0.00 | 0.00 | 0.00 | 61 | 1013.6 |
| 20260504180042 | 5 | 305 | 11.3 | 19.3 | 0.00 | 0.00 | 0.00 | 61 | 1013.6 |
| 20260504174549 | 5 | 303 | 9.7 | 19.3 | 0.00 | 0.00 | 0.00 | 65 | 1014.0 |
| 20260504173057 | 5 | 273 | 3.2 | 17.7 | 0.00 | 0.00 | 0.00 | 65 | 1013.9 |
| 20260504171547 | 5 | 352 | 6.4 | 16.1 | 0.00 | 0.00 | 0.00 | 64 | 1013.9 |